Weather History for KTKI - April, 2014

Change the Weather History Date:

Saturday, April 12, 2014

  Actual Average (KADS) Record (KADS)
Temperature  
Mean Temperature 73 °F -  
Max Temperature 82 °F 72 °F 84 °F (1999)
Min Temperature 66 °F 54 °F 33 °F (1997)
Cooling Degree Days 8    
Growing Degree Days 23 (Base 50)    
Moisture  
Dew Point 60 °F    
Average Humidity 68    
Maximum Humidity 81    
Minimum Humidity 50    
Precipitation  
Precipitation 0.00 in - - ()
Sea Level Pressure  
Sea Level Pressure 29.86 in    
Wind  
Wind Speed 18 mph (South)    
Max Wind Speed 25 mph    
Max Gust Speed 34 mph    
Visibility 10 miles    
Events      
Averages and records for this station are not official NWS values.
T = Trace of Precipitation, MM = Missing Value Source: NWS Daily Summary

Daily Weather History Graph

Daily Weather History Graph

Search for Another Location

Airport or City:

Trip Planner

Search our weather history database for the weather conditions in past years. The results will help you decide how hot, cold, wet, or windy it might be!

Date:

Astronomy

Apr. 12, 2014 Rise Set
Actual Time 6:59 AM CDT 7:54 PM CDT
Civil Twilight 6:34 AM CDT 8:20 PM CDT
Nautical Twilight 6:04 AM CDT 8:50 PM CDT
Astronomical Twilight 5:33 AM CDT 9:20 PM CDT
Moon 5:40 PM CDT (4/12) 5:19 AM CDT (4/12)
Length of Visible Light 13h 45m
Length of Day
12h 54m
Waxing Gibbous, 93% of the Moon is Illuminated
Apr 12
Waxing Gibbous
Apr 15
Full
Apr 22
Last Quarter
Apr 29
New
May 6
First Quarter

Hourly Weather History & Observations

Time (CDT) Temp. Heat Index Dew Point Humidity Pressure Visibility Wind Dir Wind Speed Gust Speed Precip Events Conditions
12:53 AM 69.1 °F - 60.1 °F 73% 29.93 in 10.0 mi SSE 11.5 mph - N/A   Clear
1:53 AM 66.9 °F - 60.1 °F 79% 29.92 in 10.0 mi SSE 12.7 mph - N/A   Clear
2:53 AM 66.0 °F - 60.1 °F 81% 29.91 in 10.0 mi South 17.3 mph 24.2 mph N/A   Clear
3:38 AM 66.2 °F - 59.0 °F 78% 29.92 in 10.0 mi South 17.3 mph - N/A   Mostly Cloudy
3:53 AM 66.0 °F - 59.0 °F 78% 29.91 in 10.0 mi South 17.3 mph - N/A   Overcast
4:53 AM 66.0 °F - 59.0 °F 78% 29.90 in 10.0 mi South 15.0 mph 23.0 mph N/A   Overcast
5:53 AM 66.0 °F - 59.0 °F 78% 29.90 in 10.0 mi South 19.6 mph 24.2 mph N/A   Overcast
6:53 AM 66.0 °F - 59.0 °F 78% 29.90 in 10.0 mi South 18.4 mph - N/A   Overcast
7:53 AM 66.9 °F - 60.1 °F 79% 29.92 in 10.0 mi South 19.6 mph 25.3 mph N/A   Overcast
8:53 AM 68.0 °F - 60.1 °F 76% 29.94 in 10.0 mi South 17.3 mph 24.2 mph N/A   Overcast
9:53 AM 70.0 °F - 60.1 °F 71% 29.93 in 10.0 mi South 23.0 mph 29.9 mph N/A   Mostly Cloudy
10:02 AM 69.8 °F - 60.8 °F 73% 29.93 in 10.0 mi South 21.9 mph 32.2 mph N/A   Scattered Clouds
10:53 AM 72.0 °F - 60.1 °F 66% 29.93 in 10.0 mi South 21.9 mph 27.6 mph N/A   Scattered Clouds
11:53 AM 73.9 °F - 60.1 °F 62% 29.91 in 10.0 mi South 21.9 mph - N/A   Clear
12:53 PM 75.9 °F - 60.1 °F 58% 29.88 in 10.0 mi South 23.0 mph 31.1 mph N/A   Partly Cloudy
1:53 PM 75.9 °F - 60.1 °F 58% 29.85 in 10.0 mi SSE 25.3 mph 32.2 mph N/A   Partly Cloudy
2:53 PM 80.1 °F 81.1 °F 61.0 °F 52% 29.82 in 10.0 mi South 23.0 mph 32.2 mph N/A   Partly Cloudy
4:53 PM 80.1 °F 80.9 °F 60.1 °F 50% 29.77 in 10.0 mi South 25.3 mph 34.5 mph N/A   Scattered Clouds
5:53 PM 79.0 °F - 60.1 °F 52% 29.76 in 10.0 mi South 21.9 mph 31.1 mph N/A   Mostly Cloudy
6:53 PM 78.1 °F - 61.0 °F 56% 29.77 in 10.0 mi SSE 18.4 mph 25.3 mph N/A   Mostly Cloudy
7:53 PM 77.0 °F - 61.0 °F 58% 29.75 in 10.0 mi SSE 19.6 mph - N/A   Clear
8:53 PM 75.9 °F - 61.0 °F 60% 29.77 in 10.0 mi South 17.3 mph - N/A   Clear
9:53 PM 73.9 °F - 61.0 °F 64% 29.78 in 10.0 mi South 16.1 mph 25.3 mph N/A   Clear
10:53 PM 73.0 °F - 61.0 °F 66% 29.77 in 10.0 mi South 19.6 mph 27.6 mph N/A   Clear
11:53 PM 73.0 °F - 61.0 °F 66% 29.76 in 10.0 mi South 23.0 mph 34.5 mph N/A   Clear